Probability
0 0 0 0 0 0 0 0 0 0 0 0 0 0 0 0 0 0 0 0 0 0 0 0 0 0 0 0 0 0 0 0 0 0 0 0 0 0 0 0 0 0 0 0
0 0 0 0 0 0 0 0 0 0 0 0 0 0 0 0 0 0 0 0 0 0 0 0 0 0 0 0 0 0 0 0 0 0 0 0 0 0 0 0 0 0 0 0
0 0 0 0 0 0 0 0 0 0 0 0 0 0 0 0 0 0 0 0 0 0 0 0 0 0 0 0 0 0 0 0 0 0 0 0 0 0 0 0 0 0 0 0
0 0 0 0 0 0 0 0 0 0 0 0 0 0 0 0 0 0 0 0 0 0 0 0 0 0 0 0 0 0 0 0 0 0 0 0 0 0 0 0 0 0 0 0
0 0 0 0 0 0 0 0 0 0 0 0 0 0 0 0 0 0 0 0 0 0 0 0 0 0 0 0 0 0 0 0 0 0 0 0 0 0 0 0 0 0 0 0
0 0 0 0 0 0 0 0 0 0 0 0 0 0 0 0 0 0 0 0 0 0 0 0 0 0 0 0 0 0 0 0 0 0 0 0 0 0 0 0 0 0 0 0
0 0 0 0 0 0 0 0 0 0 0 0 0 0 0 0 0 0 0 0 0 0 0 0 0 0 0 0 0 0 0 0 0 0 0 0 0 0 0 0 0 0 0 0
0 0 0 0 0 0 0 0 0 0 0 0 0 0 0 0 0 0 0 0 0 0 0 0 0 0 0 0 0 0 0 0 0 0 0 0 0 0 0 0 0 0 0 0
0 0 0 0 0 0 0 0 0 0 0 0 0 0 0 0 0 0 0 0 0 0 0 0 0 0 0 0 0 0 0 0 0 0 0 0 0 0 0 0 0 0 0 0
0 0 0 0 0 0 0 0 0 0 0 0 0 0 0 0 0 0 0 0 0 0 0 0 0 0 0 0 0 0 0 0 0 0 0 0 0 0 0 0 0 0 0 0
0 0 0 0 0 0 0 0 0 0 0 0 0 0 0 0 0 0 0 0 0 0 0 0 0 0 0 0 0 0 0 0 0 0 0 0 0 0 0 0 0 0 0 0
0 0 0 0 0 0 0 0 0 0 0 0 0 0 0 0 0 0 0 0 0 0 0 0 0 0 0 0 0 0 0 0 0 0 0 0 0 0 0 0 0 0 0 0
0 0 0 0 0 0 0 0 0 0 0 0 0 0 0 0 0 0 0 0 0 0 0 0 0 0 0 0 0 0 0 0 0 0 0 0 0 0 0 0 0 0 0 0
0 0 0 0 0 0 0 0 0 0 0 0 0 0 0 0 0 0 0 0 0 0 0 0 0 0 0 0 0 0 0 0 0 0 0 0 0 0 0 0 0 0 0 0
0 0 0 0 0 0 0 0 0 0 0 0 0 0 0 0 0 0 0 0 0 0 0 0 0 0 0 0 0 0 0 0 0 0 0 0 0 0 0 0 0 0 0 0
0 0 0 0 0 0 0 0 0 0 0 0 0 0 0 0 0 0 0 0 0 0 0 0 0 0 0 0 0 0 0 0 0 0 0 0 0 0 0 0 0 0 0 0
0 0 0 0 0 0 0 0 0 0 0 0 0 0 0 0 0 0 0 0 0 0 0 0 0 0 0 0 0 0 0 0 0 0 0 0 0 0 0 0 0 0 0 0
0 0 0 0 0 0 0 0 0 0 0 0 0 0 0 0 0 0 0 0 0 0 0 0 0 0 0 0 0 0 0 0 0 0 0 0 0 0 0 0 0 0 0 0
0 0 0 0 0 0 0 0 0 0 0 0 0 0 0 0 0 0 0 0 0 0 0 0 0 0 0 0 0 0 0 0 0 0 0 0 0 0 0 0 0 0 0 0
0 0 0 0 0 0 0 0 0 0 0 0 0 0 0 0 0 0 0 0 0 0 0 0 0 0 0 0 0 0 0 0 0 0 0 0 0 0 0 0 0 0 0 0
0 0 0 0 0 0 0 0 0 0 0 0 0 0 0 0 0 0 0 0 0 0 0 0 0 0 0 0 0 0 0 0 0 0 0 0 0 0 0 0 0 0 0 0
0 0 0 0 0 0 0 0 0 0 0 0 0 0 0 0 0 0 0 0 0 0 0 0 0 0 0 0 0 0 0 0 0 0 0 0 0 0 0 0 0 0 0 0
0 0 0 0 0 0 0 0 0 0 0 0 0 0 0 0 0 0 0 0 0 0 0 0 0 0 0 0 0 0 0 0 0 0 0 0 0 0 0 0 0 0 0 0
0 0 0 0 0 0 0 0 0 0 0 0 0 0 0 0 0 0 0 0 0 0 0 0 0 0 0 0 0 0 0 0 0 0 0 0 0 0 0 0 0 0 0 0
0 0 0 0 0 0 0 0 0 0 0 0 0 0 0 0 0 0 0 0 0 0 0 0 0 0 0 0 0 0 0 0 0 0 0 0 0 0 0 0 0 0 0 0
0 0 0 0 0 0 0 0 0 0 0 0 0 0 0 0 0 0 0 0 0 0 0 0 0 0 0 0 0 0 0 0 0 0 0 0 0 0 0 0 0 0 0 0
Wind_Speed
8 6 11 14 15 16 13 13 18 21 12 10 16 18 14 11 12 14 16 17 15 12 11 13 15 13 13 13 14 14 12 11 10 8 8 7 6 5 5 5 7 6 5 5
6 15 20 15 13 13 11 13 19 18 8 7 10 15 12 12 17 20 18 20 17 9 6 9 12 12 14 15 15 15 15 14 12 9 7 5 7 5 5 5 6 7 6 5
20 10 7 10 11 11 14 14 17 18 11 6 6 11 14 13 17 16 14 20 15 10 10 11 11 11 13 15 17 16 16 14 13 11 7 6 5 5 4 6 6 6 7 6
15 14 13 13 14 13 19 10 12 13 9 7 7 14 8 9 11 12 14 18 15 9 10 12 12 13 15 15 14 14 15 14 14 13 11 13 10 8 7 7 6 7 7 7
11 6 9 12 13 11 9 1 2 3 5 7 5 17 9 8 11 12 14 16 16 8 10 12 14 14 13 12 13 13 13 13 13 12 13 12 8 6 5 7 8 7 6 7
13 2 4 6 2 2 3 0 2 3 2 9 10 15 12 9 13 10 12 14 15 7 10 10 10 11 10 11 11 12 13 13 13 13 12 13 12 10 12 10 9 7 5 5
11 12 8 5 4 1 4 4 3 5 6 13 8 13 10 10 10 12 13 16 12 10 11 11 12 14 14 15 14 13 14 14 13 14 13 13 13 15 16 13 11 9 6 5
7 9 15 12 13 12 11 10 10 9 12 14 7 14 9 8 10 12 15 14 8 10 10 12 14 15 16 16 16 17 18 17 15 16 14 12 12 10 9 11 10 9 7 6
9 8 5 7 6 5 9 10 8 6 9 13 11 11 7 7 10 14 14 6 7 8 9 10 11 13 14 17 20 21 21 18 17 16 14 12 11 9 10 11 9 7 7 6
7 8 3 3 2 4 3 4 4 6 6 13 19 18 12 11 16 10 4 4 6 8 9 10 10 11 13 15 16 15 16 17 14 15 15 12 11 9 9 10 11 9 8 8
10 8 4 4 12 12 8 5 7 6 7 8 12 18 3 4 4 5 6 8 8 10 12 12 12 12 11 10 11 14 14 14 14 15 13 12 11 10 9 9 11 10 8 8
6 5 8 11 10 11 13 16 14 10 11 8 10 29 4 5 2 5 8 8 8 10 11 12 11 10 11 12 12 14 15 15 14 14 12 12 11 11 10 9 10 10 9 7
2 2 5 9 7 2 6 10 15 12 8 12 17 28 10 7 9 7 7 8 8 8 9 9 10 12 13 14 14 15 15 15 12 13 13 13 13 13 12 10 9 9 9 8
6 4 11 17 15 9 6 7 8 11 11 17 22 24 29 22 15 15 14 11 10 11 11 10 9 11 14 15 16 16 16 14 14 14 15 15 14 12 10 9 9 10 10 9
7 11 16 22 24 25 24 19 14 14 16 20 24 24 29 28 18 17 16 13 9 10 11 12 12 11 13 13 15 15 16 15 15 16 16 14 12 11 10 10 10 11 10 9
13 13 14 24 27 28 29 26 28 29 26 27 28 32 33 28 24 26 24 16 12 15 15 14 14 13 13 14 15 15 14 14 15 16 15 14 14 13 12 12 12 12 11 10
11 12 12 17 23 23 28 31 37 31 33 35 37 38 33 29 30 30 22 14 15 15 12 12 12 12 13 13 14 16 14 13 15 15 15 15 15 14 14 13 13 13 12 10
15 18 14 13 16 32 20 23 31 35 39 37 34 30 27 28 25 16 12 13 15 12 14 14 11 11 11 11 11 11 13 15 16 15 15 16 16 15 14 14 13 12 10 9
24 24 20 17 27 27 13 14 22 29 35 29 30 30 30 27 18 18 21 19 15 14 16 15 11 9 8 9 12 14 14 15 16 18 19 19 18 17 16 15 14 12 10 9
25 26 25 24 27 19 11 15 22 23 26 19 26 27 23 16 13 18 19 14 11 11 11 9 5 3 6 8 12 16 16 18 20 20 19 18 18 18 17 16 14 10 10 9
12 19 27 28 30 17 8 12 9 17 16 12 15 15 14 13 13 13 12 10 8 7 5 2 2 3 5 9 13 15 17 20 18 16 16 17 17 17 16 14 12 11 9 8
9 11 14 17 24 14 12 7 6 14 18 17 19 19 19 18 16 13 12 11 9 7 3 2 3 4 5 9 12 14 16 13 13 15 16 16 15 14 13 15 13 11 10 8
7 8 9 8 9 11 8 10 14 14 14 14 17 19 19 20 17 15 13 12 11 9 7 3 4 4 5 8 11 13 11 12 15 16 16 15 14 12 13 14 14 12 9 7
8 10 9 12 11 20 23 16 8 6 8 10 11 12 13 16 15 15 13 10 8 7 7 4 5 6 7 8 8 6 9 13 15 15 15 15 15 13 12 11 11 11 10 9
12 14 16 20 18 15 10 11 15 14 13 12 12 11 12 15 15 14 14 13 11 9 7 8 10 13 13 11 11 10 13 16 16 16 15 14 13 14 13 11 9 10 9 9
11 15 16 20 21 22 23 16 15 15 15 15 17 17 14 13 16 17 15 14 13 13 10 9 13 15 14 15 16 16 18 20 20 17 16 13 11 10 11 12 10 12 12 14
Wind_Direction
186 204 220 220 214 228 255 269 273 275 275 213 228 243 251 259 268 264 263 267 263 252 238 187 173 164 157 155 156 159 163 168 162 162 160 155 168 167 160 158 148 150 153 150
209 225 235 244 253 262 266 274 274 280 284 223 240 254 259 252 256 257 261 267 265 252 232 165 162 159 160 159 160 165 172 177 175 174 169 158 157 169 166 156 153 159 157 156
222 221 214 227 246 254 251 249 262 267 279 225 248 260 246 241 243 248 251 260 261 234 201 170 165 166 162 167 171 176 177 178 176 169 162 144 129 119 143 161 162 164 157 153
248 246 251 256 244 240 262 252 260 265 269 254 232 279 238 235 249 243 240 258 266 233 186 169 169 172 176 176 173 175 178 177 177 173 170 165 167 169 178 170 161 156 160 164
232 203 204 235 247 242 256 82 286 274 261 271 245 273 259 216 237 230 228 246 264 237 176 170 174 178 177 173 175 179 178 181 180 178 175 174 173 167 148 146 147 155 166 165
252 265 210 215 83 9 108 117 264 239 243 251 205 246 270 202 228 217 223 239 248 200 168 168 165 162 168 173 176 180 184 186 181 179 183 186 176 165 153 156 161 168 171 165
247 232 199 157 140 200 171 172 271 267 237 246 193 237 255 198 193 191 208 230 227 172 165 167 166 172 178 182 184 184 188 191 184 182 190 196 187 174 172 168 169 169 171 168
241 233 190 183 192 187 192 182 188 233 255 273 251 245 241 209 204 202 211 224 182 164 169 177 182 184 185 185 184 187 193 195 188 188 193 197 197 185 177 170 167 170 168 159
233 253 143 180 194 191 175 212 211 222 281 286 258 253 242 218 242 230 228 195 165 177 181 188 187 187 188 189 191 193 195 195 193 191 189 193 197 191 177 167 159 159 153 148
227 259 174 106 65 276 229 205 189 196 227 266 279 278 273 237 238 230 187 191 216 198 196 196 194 193 197 198 196 193 196 198 193 189 189 190 188 185 175 165 162 157 154 149
209 235 214 172 196 195 186 210 205 208 199 210 270 272 158 106 123 169 207 223 224 205 201 203 202 197 194 191 190 193 196 195 194 191 185 182 179 173 172 173 166 158 153 146
212 219 243 238 226 211 206 201 187 203 231 224 238 262 197 304 230 196 209 215 214 204 203 204 200 187 185 191 193 196 198 199 197 186 177 176 168 167 173 175 166 153 144 138
16 204 273 301 288 283 233 224 219 227 239 240 246 266 272 260 280 255 240 235 236 230 221 212 196 190 193 196 198 199 199 200 188 176 174 172 172 174 176 173 162 147 140 141
65 220 229 243 252 272 253 256 244 235 242 251 254 269 283 276 274 275 267 251 234 229 228 226 213 200 199 198 198 198 199 191 180 174 175 177 177 173 168 165 159 148 145 151
157 220 231 247 257 268 273 274 271 255 250 257 264 266 267 273 268 265 266 262 250 242 234 229 226 215 206 200 199 198 195 185 177 174 177 176 165 159 160 164 157 148 151 157
195 223 227 238 242 248 256 261 261 256 252 253 257 260 260 263 270 271 268 267 262 258 256 246 236 225 213 202 200 195 189 180 172 174 173 162 160 161 164 165 161 157 160 165
192 212 220 238 237 243 241 238 244 246 246 248 252 253 259 261 259 261 272 279 266 263 262 254 241 228 219 208 196 191 181 165 166 167 163 161 162 164 168 169 165 165 167 169
218 223 234 248 236 237 232 224 233 241 246 247 249 254 257 259 264 270 263 260 269 278 280 270 249 234 223 206 186 170 156 159 164 163 163 163 164 166 169 172 171 166 163 168
232 236 244 247 251 252 242 226 231 241 248 250 255 255 255 258 269 269 261 258 260 264 267 267 254 234 212 183 162 149 154 159 165 171 172 170 168 169 172 177 171 163 162 166
227 231 242 246 250 251 228 224 239 252 258 246 249 252 252 252 250 256 261 261 250 242 249 259 258 196 172 161 149 152 162 169 180 180 174 169 168 171 176 174 164 160 160 158
223 226 234 245 253 254 225 238 256 252 273 285 277 282 285 269 261 274 283 281 263 253 255 251 189 192 177 156 155 166 174 187 182 167 164 166 169 172 171 161 154 151 149 149
259 243 242 246 249 254 14 351 319 325 342 2 6 1 352 341 334 334 328 319 313 299 283 209 205 206 169 164 167 180 191 177 155 157 162 165 166 165 163 152 145 144 144 150
308 333 326 312 309 327 339 322 302 299 319 335 333 327 328 326 324 328 326 324 320 312 296 265 226 210 185 183 184 193 183 155 155 158 162 162 161 162 160 151 146 145 149 159
293 311 300 298 294 307 308 307 309 320 317 306 295 294 303 306 304 302 300 297 295 292 279 246 213 218 214 201 203 187 155 155 155 161 162 163 164 161 158 148 148 151 157 163
292 296 289 285 287 290 300 329 335 333 334 331 328 320 312 309 299 292 291 290 286 278 252 209 208 219 218 197 192 171 160 158 162 164 166 169 171 164 156 150 154 154 155 159
270 282 288 295 309 310 312 323 337 336 333 333 327 319 315 308 301 296 288 283 284 283 272 235 219 220 214 196 191 177 167 166 167 170 171 171 170 167 153 141 141 151 149 160